Regional Weather Roundup
Issued by NWS

Home | Current Version | Previous Version | Text Only | Print | Product List | Glossary Off
Versions: 1 2 3 4 5 6 7 8 9 10 11 12 13 14 15 16 17 18 19 20 21 22 23 24 25 26 27 28 29 30 31 32 33 34 35 36 37 38 39 40 41 42 43 44 45 46 47 48 49 50

000
ASUS43 KBIS 290110
RWRND

NORTH DAKOTA REGIONAL WEATHER ROUNDUP
NATIONAL WEATHER SERVICE BISMARCK ND
800 PM CDT FRI AUG 28 2015

NOTE: "FAIR" INDICATES FEW OR NO CLOUDS BELOW 12,000 FEET WITH NO
SIGNIFICANT WEATHER AND/OR OBSTRUCTIONS TO VISIBILITY.


NDZ001>003-009>011-017-290200-
NORTHWEST NORTH DAKOTA

CITY           SKY/WX    TMP DP  RH WIND       PRES   REMARKS
WILLISTON      MOCLDY    82  48  30 W7        29.89R HAZE
MINOT          CLEAR     78  60  53 CALM      29.85S
MINOT AFB      CLEAR     78  63  59 E3        29.84S
$$

NDZ018>021-031>035-040>046-290200-
SOUTHWEST NORTH DAKOTA

CITY           SKY/WX    TMP DP  RH WIND       PRES   REMARKS
BISMARCK       PTCLDY    78  68  71 SE6       29.88S
DICKINSON      MOCLDY    79  52  38 W5        29.92S HAZE
GARRISON         N/A     75  32  20 SE3       29.88S
HETTINGER ARPT MOCLDY    76  53  44 W7        29.97S HAZE
$$

NDZ004>008-012>016-024-026-027-054-290200-
NORTHEAST NORTH DAKOTA

CITY           SKY/WX    TMP DP  RH WIND       PRES   REMARKS
GRAND FORKS    MOCLDY    76  68  76 S9        29.83R
GRND FRKS AFB  CLEAR     77  70  78 S8        29.84R
DEVILS LAKE    PTCLDY    77  64  65 SW6       29.85S
$$

NDZ022-023-025-028>030-036>039-047>053-290200-
SOUTHEAST NORTH DAKOTA

CITY           SKY/WX    TMP DP  RH WIND       PRES   REMARKS
FARGO          CLEAR     78  67  68 S10       29.89R
JAMESTOWN      CLEAR     75  70  84 S8        29.88R
$$




USA.gov is the U.S. government's official web portal to all federal, state and local government web resources and services.